Tracking 19564 objects as of 19-Mar-2019
HD Live streaming from Space Station
objects crossing your sky now

HOT BIRD 1

Track HOT BIRD 1 now!
HOT BIRD 1 is classified as:


NORAD ID: 23537
Int'l Code: 1995-016B
Perigee: 36,039.1 km
Apogee: 36,087.9 km
Inclination: 9.8 °
Period: 1,449.9 minutes
Semi major axis: 42434 km
RCS: 7.9621 m2 (large)
Launch date: March 28, 1995
Source: European Telecommunications Satellite Organization (EUTE)
Launch site: FRENCH GUIANA (FRGUI)

Cable programming; direct-to-home broadcasting; 16 channels, Western Europe
aabbcc
Your satellite tracking list
Your tracking list is empty




NASA's NSSDC Master Catalog

Two Line Element Set (TLE):
1 23537U 95016B   19077.65312052 -.00000018 +00000-0 +00000-0 0  9999
2 23537 009.8480 040.1851 0005758 345.7541 225.2345 00.99317116087414
Source of the keplerian elements: AFSPC